RDN15 KEGE-KGCN

Flight info

Callsign RDN15
Flight time 0h 56m
Altitude 38000
Route BEVVR1 SPRKT JNC KUHVC TOADD
Aircraft B737/M-SDE2E3FGHIRWXY/LB1

Departure

Time 2026-05-08 15:16
Airport Eagle County Regional Airport (KEGE)

Arrival

Time 2026-05-08 16:12
Airport Grand Canyon National Park Airport (KGCN)
Time Latitude Longitude Altitude Speed Heading
2026-05-08 14:42 39.64192 -106.90593 6523 ft 0 kts 262°
2026-05-08 15:11 39.64194 -106.90608 6523 ft 4 kts 302°
2026-05-08 15:12 39.64211 -106.90624 6523 ft 0 kts 338°
2026-05-08 15:12 39.64235 -106.90632 6523 ft 8 kts 347°
2026-05-08 15:12 39.64275 -106.90600 6523 ft 8 kts 80°
2026-05-08 15:13 39.64287 -106.90489 6523 ft 18 kts 82°
2026-05-08 15:13 39.64304 -106.90325 6523 ft 18 kts 82°
2026-05-08 15:13 39.64321 -106.90171 6523 ft 15 kts 78°
2026-05-08 15:13 39.64333 -106.90067 6523 ft 10 kts 85°
2026-05-08 15:14 39.64342 -106.90031 6523 ft 2 kts 44°
2026-05-08 15:14 39.64358 -106.90016 6523 ft 6 kts 27°
2026-05-08 15:14 39.64410 -106.90021 6523 ft 8 kts 346°
2026-05-08 15:14 39.64444 -106.90060 6523 ft 6 kts 270°
2026-05-08 15:15 39.64434 -106.90148 6523 ft 35 kts 262°
2026-05-08 15:15 39.64362 -106.90779 6523 ft 104 kts 261°
2026-05-08 15:15 39.64235 -106.91968 6526 ft 160 kts 262°
2026-05-08 15:15 39.64089 -106.93529 6921 ft 181 kts 262°
2026-05-08 15:16 39.63684 -106.95026 7811 ft 179 kts 238°
2026-05-08 15:16 39.62741 -106.96108 8553 ft 184 kts 215°
2026-05-08 15:16 39.61550 -106.96895 9087 ft 204 kts 207°
2026-05-08 15:16 39.60179 -106.97730 9441 ft 230 kts 210°
2026-05-08 15:17 39.58799 -106.98919 9801 ft 247 kts 231°
2026-05-08 15:17 39.58000 -107.00874 10469 ft 246 kts 262°
2026-05-08 15:17 39.58037 -107.03013 11646 ft 234 kts 283°
2026-05-08 15:17 39.58485 -107.05015 12724 ft 228 kts 292°
2026-05-08 15:18 39.59267 -107.06788 13535 ft 233 kts 310°
2026-05-08 15:18 39.60334 -107.08416 14438 ft 235 kts 312°
2026-05-08 15:18 39.61404 -107.09997 15254 ft 239 kts 312°
2026-05-08 15:18 39.62679 -107.11465 15738 ft 256 kts 329°
2026-05-08 15:19 39.64459 -107.12189 15984 ft 286 kts 350°
2026-05-08 15:19 39.66576 -107.11922 16014 ft 327 kts 10°
2026-05-08 15:19 39.68744 -107.10595 16026 ft 365 kts 25°
2026-05-08 15:19 39.70977 -107.09062 16000 ft 352 kts 14°
2026-05-08 15:20 39.73305 -107.08510 15998 ft 336 kts 355°
2026-05-08 15:20 39.75588 -107.09040 16047 ft 337 kts 336°
2026-05-08 15:20 39.77573 -107.10667 16732 ft 340 kts 317°
2026-05-08 15:20 39.79002 -107.13122 17594 ft 345 kts 300°
2026-05-08 15:21 39.79723 -107.16126 18366 ft 357 kts 282°
2026-05-08 15:21 39.79629 -107.19407 19079 ft 374 kts 264°
2026-05-08 15:21 39.78702 -107.22652 19775 ft 393 kts 248°
2026-05-08 15:21 39.77205 -107.25658 20446 ft 402 kts 244°
2026-05-08 15:22 39.75749 -107.28801 21101 ft 404 kts 247°
2026-05-08 15:22 39.74343 -107.31992 21722 ft 409 kts 248°
2026-05-08 15:22 39.72914 -107.35207 22310 ft 414 kts 247°
2026-05-08 15:22 39.71450 -107.38465 22882 ft 419 kts 247°
2026-05-08 15:23 39.69967 -107.41743 23433 ft 424 kts 247°
2026-05-08 15:23 39.68459 -107.45055 23975 ft 429 kts 247°
2026-05-08 15:23 39.66929 -107.48406 24516 ft 433 kts 247°
2026-05-08 15:23 39.65367 -107.51816 25062 ft 436 kts 247°
2026-05-08 15:24 39.63809 -107.55209 25578 ft 440 kts 247°
2026-05-08 15:24 39.62237 -107.58630 26096 ft 442 kts 247°
2026-05-08 15:24 39.60665 -107.62083 26576 ft 445 kts 248°
2026-05-08 15:24 39.59098 -107.65554 27032 ft 448 kts 248°
2026-05-08 15:25 39.57529 -107.69005 27468 ft 451 kts 247°
2026-05-08 15:25 39.55928 -107.72510 27919 ft 454 kts 247°
2026-05-08 15:25 39.54310 -107.76038 28293 ft 458 kts 247°
2026-05-08 15:25 39.52651 -107.79646 28667 ft 461 kts 247°
2026-05-08 15:26 39.51027 -107.83170 29105 ft 462 kts 248°
2026-05-08 15:26 39.49377 -107.86746 29508 ft 464 kts 248°
2026-05-08 15:26 39.47718 -107.90336 29856 ft 467 kts 248°
2026-05-08 15:26 39.46044 -107.93952 30195 ft 469 kts 248°
2026-05-08 15:27 39.44358 -107.97593 30502 ft 472 kts 248°
2026-05-08 15:27 39.42672 -108.01226 30979 ft 470 kts 248°
2026-05-08 15:27 39.40997 -108.04834 31582 ft 465 kts 248°
2026-05-08 15:27 39.39337 -108.08407 32172 ft 461 kts 247°
2026-05-08 15:28 39.37688 -108.11950 32668 ft 459 kts 247°
2026-05-08 15:28 39.36044 -108.15480 33048 ft 459 kts 246°
2026-05-08 15:28 39.34398 -108.19009 33421 ft 458 kts 246°
2026-05-08 15:28 39.32757 -108.22522 33868 ft 456 kts 246°
2026-05-08 15:29 39.31121 -108.26020 34297 ft 454 kts 245°
2026-05-08 15:29 39.29490 -108.29504 34722 ft 452 kts 245°
2026-05-08 15:29 39.27870 -108.32961 35185 ft 448 kts 245°
2026-05-08 15:29 39.26255 -108.36406 35527 ft 448 kts 245°
2026-05-08 15:30 39.24649 -108.39826 36019 ft 442 kts 244°
2026-05-08 15:30 39.23064 -108.43198 36412 ft 440 kts 244°
2026-05-08 15:30 39.21511 -108.46552 36643 ft 441 kts 244°
2026-05-08 15:30 39.19926 -108.49943 36898 ft 441 kts 244°
2026-05-08 15:31 39.18340 -108.53310 37173 ft 441 kts 243°
2026-05-08 15:31 39.16735 -108.56702 37404 ft 442 kts 243°
2026-05-08 15:31 39.15132 -108.60082 37651 ft 442 kts 243°
2026-05-08 15:31 39.13528 -108.63462 37887 ft 442 kts 243°
2026-05-08 15:32 39.11920 -108.66846 38087 ft 444 kts 243°
2026-05-08 15:32 39.10304 -108.70244 38112 ft 446 kts 243°
2026-05-08 15:32 39.06937 -108.76948 38113 ft 448 kts 237°
2026-05-08 15:33 39.02674 -108.82840 38115 ft 451 kts 227°
2026-05-08 15:33 38.97920 -108.88072 38114 ft 447 kts 224°
2026-05-08 15:34 38.93167 -108.93182 38115 ft 446 kts 224°
2026-05-08 15:34 38.88400 -108.98309 38108 ft 447 kts 224°
2026-05-08 15:35 38.83614 -109.03452 38100 ft 449 kts 224°
2026-05-08 15:35 38.78829 -109.08601 38098 ft 449 kts 225°
2026-05-08 15:36 38.74869 -109.12897 38095 ft 450 kts 225°
2026-05-08 15:36 38.69302 -109.18891 38092 ft 449 kts 225°
2026-05-08 15:37 38.64540 -109.23997 38090 ft 446 kts 224°
2026-05-08 15:37 38.59768 -109.29101 38087 ft 449 kts 224°
2026-05-08 15:38 38.54976 -109.34215 38087 ft 448 kts 224°
2026-05-08 15:38 38.50206 -109.39297 38091 ft 448 kts 224°
2026-05-08 15:39 38.45391 -109.44418 38102 ft 449 kts 224°
2026-05-08 15:39 38.40588 -109.49517 38097 ft 449 kts 224°
2026-05-08 15:40 38.35799 -109.54605 38093 ft 445 kts 225°
2026-05-08 15:40 38.31065 -109.59641 38100 ft 444 kts 224°
2026-05-08 15:41 38.26297 -109.64668 38115 ft 446 kts 224°
2026-05-08 15:41 38.21504 -109.69708 38117 ft 447 kts 224°
2026-05-08 15:42 38.16713 -109.74738 38110 ft 448 kts 224°
2026-05-08 15:42 38.11902 -109.79786 38118 ft 449 kts 224°
2026-05-08 15:43 38.06974 -109.84677 38133 ft 450 kts 221°
2026-05-08 15:43 38.01988 -109.89412 38134 ft 445 kts 221°
2026-05-08 15:44 37.97046 -109.94133 38130 ft 445 kts 221°
2026-05-08 15:44 37.92101 -109.98865 38133 ft 446 kts 221°
2026-05-08 15:45 37.87952 -110.02835 38133 ft 447 kts 221°
2026-05-08 15:45 37.82994 -110.07594 38128 ft 447 kts 221°
2026-05-08 15:46 37.78296 -110.12130 38129 ft 449 kts 221°
2026-05-08 15:46 37.73304 -110.16921 38133 ft 451 kts 221°
2026-05-08 15:47 37.68362 -110.21647 38116 ft 445 kts 221°
2026-05-08 15:47 37.63432 -110.26350 38107 ft 445 kts 221°
2026-05-08 15:48 37.56000 -110.33422 38107 ft 446 kts 221°
2026-05-08 15:49 37.51030 -110.38140 38103 ft 447 kts 221°
2026-05-08 15:49 37.46047 -110.42863 38091 ft 450 kts 221°
2026-05-08 15:50 37.41049 -110.47592 38090 ft 449 kts 221°
2026-05-08 15:50 37.36061 -110.52303 38091 ft 446 kts 221°
2026-05-08 15:51 37.31090 -110.56990 37929 ft 447 kts 221°
2026-05-08 15:51 37.28598 -110.59337 37803 ft 449 kts 221°
2026-05-08 15:51 37.26090 -110.61696 37678 ft 450 kts 221°
2026-05-08 15:51 37.23584 -110.64052 37553 ft 451 kts 221°
2026-05-08 15:52 37.21070 -110.66413 37428 ft 452 kts 221°
2026-05-08 15:52 37.18543 -110.68784 37304 ft 454 kts 221°
2026-05-08 15:52 37.16022 -110.71149 37179 ft 455 kts 221°
2026-05-08 15:52 37.13474 -110.73536 37054 ft 457 kts 221°
2026-05-08 15:53 37.10932 -110.75915 36929 ft 456 kts 221°
2026-05-08 15:53 37.08386 -110.78296 36804 ft 456 kts 221°
2026-05-08 15:53 37.05843 -110.80672 36679 ft 455 kts 221°
2026-05-08 15:53 37.03312 -110.83035 36554 ft 453 kts 221°
2026-05-08 15:54 37.00820 -110.85361 36430 ft 454 kts 221°
2026-05-08 15:54 36.98284 -110.87725 36306 ft 456 kts 221°
2026-05-08 15:54 36.95707 -110.90124 36179 ft 457 kts 221°
2026-05-08 15:54 36.93185 -110.92471 36056 ft 458 kts 221°
2026-05-08 15:55 36.90621 -110.94855 35931 ft 459 kts 221°
2026-05-08 15:55 36.85468 -110.99639 35681 ft 463 kts 221°
2026-05-08 15:55 36.82883 -111.02037 35556 ft 464 kts 221°
2026-05-08 15:56 36.80279 -111.04449 35430 ft 465 kts 221°
2026-05-08 15:56 36.77679 -111.06855 35306 ft 466 kts 221°
2026-05-08 15:56 36.75071 -111.09268 35180 ft 467 kts 221°
2026-05-08 15:56 36.72457 -111.11683 35056 ft 467 kts 221°
2026-05-08 15:57 36.69854 -111.14087 34930 ft 464 kts 221°
2026-05-08 15:57 36.67261 -111.16479 34806 ft 465 kts 221°
2026-05-08 15:57 36.64653 -111.18884 34680 ft 467 kts 221°
2026-05-08 15:57 36.62040 -111.21289 34555 ft 469 kts 221°
2026-05-08 15:58 36.59409 -111.23711 34430 ft 471 kts 221°
2026-05-08 15:58 36.56775 -111.26132 34306 ft 472 kts 221°
2026-05-08 15:58 36.54135 -111.28574 34180 ft 472 kts 221°
2026-05-08 15:58 36.51497 -111.31009 33771 ft 474 kts 221°
2026-05-08 15:59 36.49043 -111.33261 33062 ft 462 kts 221°
2026-05-08 15:59 36.46661 -111.35441 32360 ft 449 kts 221°
2026-05-08 15:59 36.44180 -111.37709 31608 ft 437 kts 221°
2026-05-08 15:59 36.41757 -111.39920 30851 ft 427 kts 221°
2026-05-08 16:00 36.39383 -111.42086 30001 ft 421 kts 221°
2026-05-08 16:00 36.37032 -111.44232 29116 ft 417 kts 220°
2026-05-08 16:00 36.34706 -111.46350 28215 ft 412 kts 220°
2026-05-08 16:00 36.32414 -111.48452 27314 ft 407 kts 221°
2026-05-08 16:01 36.30311 -111.50763 26412 ft 400 kts 229°
2026-05-08 16:01 36.28495 -111.53334 25511 ft 393 kts 236°
2026-05-08 16:01 36.26897 -111.56052 24611 ft 388 kts 239°
2026-05-08 16:01 36.25412 -111.58815 23709 ft 383 kts 240°
2026-05-08 16:02 36.23967 -111.61558 22808 ft 378 kts 240°
2026-05-08 16:02 36.22537 -111.64262 21907 ft 373 kts 240°
2026-05-08 16:02 36.21130 -111.66912 21274 ft 361 kts 240°
2026-05-08 16:02 36.19793 -111.69426 21019 ft 339 kts 240°
2026-05-08 16:03 36.18514 -111.71827 20409 ft 331 kts 240°
2026-05-08 16:03 36.17250 -111.74197 19659 ft 328 kts 240°
2026-05-08 16:03 36.16017 -111.76507 18914 ft 325 kts 240°
2026-05-08 16:03 36.14783 -111.78817 18185 ft 316 kts 240°
2026-05-08 16:04 36.13582 -111.81090 17430 ft 307 kts 241°
2026-05-08 16:04 36.12464 -111.83240 16809 ft 296 kts 240°
2026-05-08 16:04 36.11344 -111.85369 16174 ft 287 kts 240°
2026-05-08 16:04 36.10266 -111.87403 15548 ft 280 kts 240°
2026-05-08 16:05 36.09191 -111.89420 14976 ft 281 kts 240°
2026-05-08 16:05 36.08112 -111.91436 14428 ft 281 kts 239°
2026-05-08 16:05 36.07050 -111.93417 14225 ft 268 kts 239°
2026-05-08 16:05 36.06047 -111.95286 14032 ft 255 kts 240°
2026-05-08 16:06 36.04931 -111.96928 13597 ft 258 kts 221°
2026-05-08 16:06 36.03421 -111.98136 13197 ft 257 kts 216°
2026-05-08 16:06 36.01962 -111.99330 12974 ft 247 kts 217°
2026-05-08 16:06 36.00696 -112.00700 12580 ft 240 kts 239°
2026-05-08 16:07 36.00130 -112.02572 12163 ft 231 kts 265°
2026-05-08 16:07 35.99996 -112.04541 11733 ft 230 kts 270°
2026-05-08 16:07 35.99929 -112.06526 11291 ft 233 kts 271°
2026-05-08 16:07 35.99864 -112.08516 10882 ft 230 kts 271°
2026-05-08 16:08 35.99798 -112.10483 10431 ft 227 kts 271°
2026-05-08 16:08 35.99647 -112.12410 9963 ft 229 kts 259°
2026-05-08 16:08 35.98988 -112.14199 9594 ft 230 kts 245°
2026-05-08 16:08 35.98176 -112.15897 9119 ft 226 kts 242°
2026-05-08 16:09 35.97315 -112.17467 8670 ft 217 kts 233°
2026-05-08 16:09 35.96655 -112.18356 8479 ft 206 kts 228°
2026-05-08 16:09 35.95355 -112.19923 8149 ft 186 kts 226°
2026-05-08 16:09 35.94438 -112.20986 7904 ft 176 kts 226°
2026-05-08 16:10 35.93552 -112.21993 7733 ft 171 kts 225°
2026-05-08 16:10 35.92434 -112.22523 7371 ft 182 kts 184°
2026-05-08 16:10 35.91278 -112.22013 6907 ft 177 kts 137°
2026-05-08 16:10 35.90987 -112.20697 6872 ft 162 kts 72°
2026-05-08 16:11 35.91561 -112.19555 6880 ft 155 kts 54°
2026-05-08 16:11 35.92171 -112.18487 6864 ft 151 kts 54°
2026-05-08 16:11 35.92793 -112.17462 6843 ft 148 kts 52°
2026-05-08 16:11 35.93497 -112.16529 6757 ft 149 kts 41°
2026-05-08 16:12 35.94294 -112.15701 6625 ft 150 kts 48°
2026-05-08 16:12 35.95082 -112.14863 6577 ft 145 kts 42°
2026-05-08 16:12 35.95759 -112.14144 6577 ft 104 kts 39°
2026-05-08 16:12 35.96068 -112.13815 6576 ft 29 kts 39°
2026-05-08 16:13 35.96073 -112.13698 6576 ft 9 kts 129°
2026-05-08 16:13 35.96039 -112.13651 6576 ft 7 kts 157°
2026-05-08 16:13 35.96004 -112.13672 6576 ft 5 kts 220°
2026-05-08 16:13 35.95968 -112.13710 6576 ft 7 kts 220°
2026-05-08 16:14 35.95928 -112.13749 6576 ft 7 kts 218°
2026-05-08 16:14 35.95888 -112.13791 6576 ft 11 kts 221°
2026-05-08 16:14 35.95828 -112.13853 6576 ft 5 kts 218°
2026-05-08 16:14 35.95798 -112.13849 6576 ft 4 kts 148°
2026-05-08 16:15 35.95791 -112.13838 6576 ft 1 kts 118°
2026-05-08 16:15 35.95783 -112.13823 6576 ft 0 kts 129°